Phoenix, AZ

6:50 PM MST on September 28, 2016 (GMT -0700)
Phoenix Sky Harbor International

Weather History for KPHX - January, 2013

Change the Weather History Date:

Thursday, January 3, 2013

  Actual Average Record
Temperature  
Mean Temperature 52 °F 55 °F  
Max Temperature 63 °F 66 °F 79 °F (1956)
Min Temperature 40 °F 45 °F 25 °F (1950)
Degree Days  
Heating Degree Days 13 10  
Month to date heating degree days 47 30  
Since 1 July heating degree days 328 431  
Cooling Degree Days 0 0  
Month to date cooling degree days 0 0  
Year to date cooling degree days 0 0  
Growing Degree Days 1 (Base 50)    
Moisture  
Dew Point 15 °F    
Average Humidity 30    
Maximum Humidity 43    
Minimum Humidity 16    
Precipitation  
Precipitation 0.00 in 0.03 in 0.82 in (2005)
Month to date precipitation 0.00 0.09  
Year to date precipitation 0.00 0.09  
Snow  
Snow 0.00 in - - ()
Month to date snowfall 0.0  
Year to date snowfall 0.0  
Since 1 July snowfall 0.0  
Snow Depth 0.00 in    
Sea Level Pressure  
Sea Level Pressure 30.09 in    
Wind  
Wind Speed 8 mph (ENE)    
Max Wind Speed 21 mph    
Max Gust Speed 24 mph    
Visibility 10 miles    
Events      
T = Trace of Precipitation, MM = Missing Value Source: NWS Daily Summary

Daily Weather History Graph

Daily Weather History Graph

Search for Another Location

Airport or City:

Trip Planner

Search our weather history database for the weather conditions in past years. The results will help you decide how hot, cold, wet, or windy it might be!

Date:

Astronomy

Jan. 03, 2013 Rise Set
Actual Time 7:32 AM MST 5:33 PM MST
Civil Twilight 7:05 AM MST 6:00 PM MST
Nautical Twilight 6:34 AM MST 6:31 PM MST
Astronomical Twilight 6:04 AM MST 7:01 PM MST
Moon 11:51 PM MST (1/3) 11:05 AM MST (1/3)
Length of Visible Light 10h 55m
Length of Day
10h 00m
Waning Gibbous, 65% of the Moon is Illuminated
Jan 3
Waning Gibbous
Jan 4
Last Quarter
Jan 11
New
Jan 18
First Quarter
Jan 26
Full

Hourly Weather History & Observations

Time (MST) Temp. Windchill Dew Point Humidity Pressure Visibility Wind Dir Wind Speed Gust Speed Precip Events Conditions
12:51 AM 52.0 °F - 12.0 °F 20% 30.02 in 10.0 mi NE 4.6 mph - N/A   Clear
1:51 AM 51.1 °F - 12.0 °F 21% 30.02 in 10.0 mi ENE 6.9 mph - N/A   Clear
2:51 AM 48.0 °F - 17.1 °F 29% 30.04 in 10.0 mi Variable 3.5 mph - N/A   Clear
3:51 AM 50.0 °F - 12.9 °F 23% 30.04 in 10.0 mi ENE 5.8 mph - N/A   Clear
4:51 AM 46.0 °F 44.8 °F 15.1 °F 29% 30.04 in 10.0 mi East 3.5 mph - N/A   Clear
5:51 AM 43.0 °F - 21.0 °F 42% 30.05 in 10.0 mi Calm Calm - N/A   Clear
6:51 AM 45.0 °F 42.6 °F 14.0 °F 29% 30.06 in 10.0 mi East 4.6 mph - N/A   Clear
7:51 AM 41.0 °F - 19.9 °F 43% 30.09 in 10.0 mi Calm Calm - N/A   Clear
8:51 AM 46.0 °F - 21.9 °F 39% 30.11 in 10.0 mi Calm Calm - N/A   Clear
9:51 AM 51.1 °F - 17.1 °F 26% 30.12 in 10.0 mi Calm Calm - N/A   Clear
10:51 AM 55.9 °F - 12.0 °F 18% 30.13 in 10.0 mi ENE 16.1 mph - N/A   Clear
11:51 AM 57.9 °F - 14.0 °F 18% 30.11 in 10.0 mi ENE 13.8 mph - N/A   Clear
12:51 PM 60.1 °F - 14.0 °F 16% 30.08 in 10.0 mi NE 13.8 mph - N/A   Clear
1:51 PM 60.8 °F - 15.8 °F 17% 30.07 in 10.0 mi NE 11.5 mph - N/A   Clear
2:51 PM 62.1 °F - 15.1 °F 16% 30.06 in 10.0 mi ENE 17.3 mph - N/A   Clear
3:51 PM 62.1 °F - 16.0 °F 17% 30.06 in 10.0 mi ENE 12.7 mph 19.6 mph N/A   Clear
4:51 PM 62.1 °F - 17.1 °F 18% 30.07 in 10.0 mi ENE 12.7 mph - N/A   Clear
5:51 PM 59.0 °F - 18.0 °F 20% 30.09 in 10.0 mi ENE 9.2 mph - N/A   Clear
6:51 PM 57.9 °F - 18.0 °F 21% 30.09 in 10.0 mi NE 6.9 mph - N/A   Clear
7:51 PM 55.9 °F - 12.9 °F 18% 30.12 in 10.0 mi NE 11.5 mph - N/A   Clear
8:51 PM 54.0 °F - 12.0 °F 19% 30.14 in 10.0 mi NE 15.0 mph 23.0 mph N/A   Clear
9:51 PM 53.1 °F - 14.0 °F 21% 30.17 in 10.0 mi ENE 11.5 mph - N/A   Clear
10:51 PM 51.1 °F - 14.0 °F 23% 30.18 in 10.0 mi ENE 10.4 mph - N/A   Clear
11:51 PM 51.1 °F - 12.9 °F 22% 30.19 in 10.0 mi NE 8.1 mph - N/A   Clear